{"data":{"norad_id":44457,"epoch":"2026-09-20T05:00:10.441152Z","epoch_age_seconds":47181,"freshness":"FRESH","line1":"1 44457U 19048A   26263.20845418  .00000077  00000+0  00000+0 0  9999","line2":"2 44457   0.0159 126.8348 0000430 294.8331  24.4810  1.00269619 26179","mean_motion":1.00269619,"eccentricity":4.3e-5,"inclination_deg":0.0159,"raan_deg":126.8348,"arg_perigee_deg":294.8331,"mean_anomaly_deg":24.481,"bstar":0,"rev_number":2617,"period_min":1436.1279262465,"perigee_km":35785.389070965,"apogee_km":35789.015290134,"semimajor_km":42165.339180549,"source":"CELESTRAK","updated_at":"2026-09-20T09:00:35.268256Z"}}